GW1774 Weather Reports


time (UTC)temp
C
wind
direction
speed
KPH
gust
KPH
rain 1hr
cm
rain 24hr
cm
rain mn
cm
humidity
%
barometer
mb
20260906121003 22 337 0.0 1.6 0.00 0.00 0.00 92 1011.2
20260906120003 22 338 0.0 1.6 0.00 0.00 0.00 92 1011.6
20260906115003 22 323 0.0 4.8 0.00 0.00 0.00 93 1011.6
20260906114003 22 342 0.0 1.6 0.00 0.00 0.00 93 1011.2
20260906113217 22 343 0.0 1.6 0.00 0.00 0.00 93 1011.2
20260906112217 22 332 0.0 1.6 0.00 0.00 0.00 93 1011.2
20260906111217 22 335 0.0 1.6 0.00 0.00 0.00 94 1011.2
20260906110216 22 337 0.0 1.6 0.00 0.00 0.00 94 1010.9
20260906105216 22 0 0.0 0.0 0.00 0.00 0.00 94 1010.9
20260906104216 22 0 0.0 0.0 0.00 0.00 0.00 95 1010.9
20260906103003 22 0 0.0 0.0 0.00 0.00 0.00 95 1010.9
20260906102003 22 0 0.0 0.0 0.00 0.00 0.00 95 1010.5
20260906101003 22 0 0.0 0.0 0.00 0.00 0.00 95 1010.5
20260906100003 22 0 0.0 0.0 0.00 0.00 0.00 95 1010.5
20260906095003 22 0 0.0 0.0 0.00 0.00 0.00 96 1010.2
20260906094003 21 0 0.0 0.0 0.00 0.00 0.00 96 1010.2
20260906093003 21 0 0.0 0.0 0.00 0.00 0.00 96 1010.2
20260906092003 21 0 0.0 0.0 0.00 0.00 0.00 96 1009.5
20260906091003 21 0 0.0 0.0 0.00 0.00 0.00 96 1009.8
20260906090003 21 0 0.0 0.0 0.00 0.00 0.00 96 1009.5
20260906085003 21 0 0.0 0.0 0.00 0.00 0.00 96 1009.5
20260906084003 21 0 0.0 0.0 0.00 0.00 0.00 96 1009.5
20260906083003 21 0 0.0 0.0 0.00 0.00 0.00 96 1009.5
20260906082003 21 0 0.0 0.0 0.00 0.00 0.00 96 1009.8
20260906081003 21 342 0.0 1.6 0.00 0.00 0.00 96 1009.5
20260906080003 21 0 0.0 0.0 0.00 0.00 0.00 96 1009.5
20260906075003 21 0 0.0 0.0 0.00 0.00 0.00 96 1009.2
20260906074003 21 0 0.0 0.0 0.00 0.00 0.00 96 1008.8
20260906073003 21 0 0.0 0.0 0.00 0.00 0.00 96 1008.8
20260906072003 21 0 0.0 0.0 0.00 0.00 0.00 96 1009.2
20260906071003 21 0 0.0 0.0 0.00 0.00 0.00 96 1009.2
20260906070003 21 0 0.0 0.0 0.00 0.00 0.00 96 1008.8
20260906065003 21 0 0.0 0.0 0.00 0.00 0.00 96 1009.2
20260906064003 21 0 0.0 0.0 0.00 0.00 0.00 96 1009.5
20260906063003 21 0 0.0 0.0 0.00 0.00 0.00 96 1009.5
20260906062003 21 0 0.0 0.0 0.00 0.00 0.00 96 1009.2
20260906061003 21 0 0.0 0.0 0.00 0.00 0.00 96 1009.2
20260906060003 21 0 0.0 0.0 0.00 0.00 0.00 95 1009.5
20260906055003 21 0 0.0 0.0 0.00 0.00 0.00 95 1009.5
20260906054003 21 0 0.0 0.0 0.00 0.00 0.00 95 1009.5
20260906053003 21 0 0.0 0.0 0.00 0.00 0.00 95 1009.8
20260906052003 21 0 0.0 0.0 0.00 0.00 0.00 95 1009.8
20260906051003 21 0 0.0 0.0 0.00 0.00 0.00 95 1010.2
20260906050003 21 0 0.0 0.0 0.00 0.00 0.00 95 1010.2
20260906045003 21 0 0.0 0.0 0.00 0.00 0.00 95 1010.2
20260906044003 21 0 0.0 0.0 0.00 0.00 0.00 95 1010.2
20260906043003 22 0 0.0 0.0 0.00 0.00 0.00 95 1010.5
20260906042003 22 0 0.0 0.0 0.00 0.00 0.00 95 1010.5
20260906041003 22 0 0.0 0.0 0.00 0.00 0.00 95 1010.2
20260906040003 22 0 0.0 0.0 0.00 0.00 0.00 94 1010.5
20260906035003 22 0 0.0 0.0 0.00 0.00 0.00 94 1010.2
20260906034003 22 0 0.0 0.0 0.00 0.00 0.00 94 1010.5
20260906033003 22 0 0.0 0.0 0.00 0.00 0.00 94 1010.5
20260906032003 22 0 0.0 0.0 0.00 0.00 0.00 94 1010.5
20260906031003 22 0 0.0 0.0 0.00 0.00 0.00 94 1010.2
20260906030003 22 0 0.0 0.0 0.00 0.00 0.00 94 1010.2
20260906025003 22 0 0.0 0.0 0.00 0.00 0.00 93 1010.2
20260906024003 22 0 0.0 0.0 0.00 0.00 0.00 93 1009.8
20260906023003 22 0 0.0 0.0 0.00 0.00 0.00 93 1010.5
20260906022003 22 0 0.0 0.0 0.00 0.00 0.00 92 1009.8
20260906021003 22 0 0.0 0.0 0.00 0.00 0.00 92 1009.8
20260906020003 22 0 0.0 0.0 0.00 0.00 0.00 92 1009.5
20260906015003 23 0 0.0 0.0 0.00 0.00 0.00 92 1009.5
20260906014003 23 0 0.0 0.0 0.00 0.00 0.00 91 1010.2
20260906013003 23 0 0.0 0.0 0.00 0.00 0.00 90 1009.8
20260906012003 23 0 0.0 0.0 0.00 0.00 0.00 90 1009.8
20260906011003 23 0 0.0 0.0 0.00 0.00 0.00 90 1009.8
20260906010003 23 0 0.0 0.0 0.00 0.00 0.00 89 1009.5
20260906005003 23 0 0.0 0.0 0.00 0.00 0.00 89 1009.5
20260906004003 23 0 0.0 0.0 0.00 0.00 0.00 89 1009.5
20260906003003 23 0 0.0 0.0 0.00 0.00 0.00 88 1009.5
20260906002003 24 0 0.0 0.0 0.00 0.00 0.00 88 1009.2
20260906001003 23 0 0.0 0.0 0.00 0.00 0.00 88 1008.8
20260906000003 24 0 0.0 0.0 0.00 0.00 0.00 87 1008.8
20260905235003 24 0 0.0 0.0 0.00 0.00 0.00 86 1008.8
20260905234003 24 0 0.0 0.0 0.00 0.00 0.00 85 1008.8
20260905233003 25 60 0.0 1.6 0.00 0.00 0.00 84 1008.5
20260905232003 25 59 0.0 1.6 0.00 0.00 0.00 83 1008.5
20260905231003 25 57 0.0 1.6 0.00 0.00 0.00 83 1008.5
20260905230003 25 57 0.0 1.6 0.00 0.00 0.00 81 1008.1
20260905225003 25 55 0.0 3.2 0.00 0.00 0.00 81 1008.1
20260905224003 25 37 0.0 1.6 0.00 0.00 0.00 79 1008.1
20260905223003 25 33 0.0 1.6 0.00 0.00 0.00 78 1008.1
20260905222003 25 33 0.0 1.6 0.00 0.00 0.00 79 1008.1
20260905221003 25 43 0.0 1.6 0.00 0.00 0.00 79 1008.5
20260905220003 25 47 1.6 4.8 0.00 0.00 0.00 80 1008.5
20260905215003 25 37 1.6 3.2 0.00 0.00 0.00 78 1008.5
20260905214003 25 62 1.6 4.8 0.00 0.00 0.00 80 1008.5
20260905213003 26 50 1.6 6.4 0.00 0.00 0.00 78 1008.1
20260905212003 26 40 0.0 1.6 0.00 0.00 0.00 78 1008.1
20260905211003 26 38 0.0 1.6 0.00 0.00 0.00 78 1008.1
20260905210003 26 38 0.0 1.6 0.00 0.00 0.00 78 1007.8
20260905205003 26 0 0.0 0.0 0.00 0.00 0.00 78 1008.1
20260905204003 26 39 0.0 3.2 0.00 0.00 0.00 78 1008.1
20260905203003 26 36 0.0 1.6 0.00 0.00 0.00 76 1008.5
20260905202003 27 0 0.0 0.0 0.00 0.00 0.00 75 1007.8
20260905201003 27 38 0.0 1.6 0.00 0.00 0.00 72 1008.1
20260905200003 27 48 0.0 3.2 0.00 0.00 0.00 68 1008.5
20260905195003 29 55 1.6 4.8 0.00 0.00 0.00 64 1008.8
20260905194003 30 21 1.6 4.8 0.00 0.00 0.00 61 1009.2
20260905193003 31 67 1.6 12.9 0.00 0.00 0.00 60 1008.5
20260905192003 32 64 0.0 1.6 0.00 0.00 0.00 58 1008.1
20260905191003 33 67 0.0 3.2 0.00 0.00 0.00 56 1007.8
20260905190003 34 68 1.6 3.2 0.00 0.00 0.00 53 1007.8
20260905185003 35 63 1.6 4.8 0.00 0.00 0.00 50 1007.4
20260905184003 35 77 1.6 6.4 0.00 0.00 0.00 48 1007.8
20260905183003 36 57 1.6 4.8 0.00 0.00 0.00 45 1008.1
20260905182003 37 71 1.6 6.4 0.00 0.00 0.00 45 1008.1
20260905181003 36 93 1.6 6.4 0.00 0.00 0.00 46 1008.1
20260905180003 36 67 1.6 4.8 0.00 0.00 0.00 47 1008.5
20260905175003 36 68 1.6 6.4 0.00 0.00 0.00 47 1008.5
20260905174003 36 61 1.6 6.4 0.00 0.00 0.00 47 1008.8
20260905173003 36 66 1.6 4.8 0.00 0.00 0.00 48 1009.2
20260905172003 36 43 1.6 4.8 0.00 0.00 0.00 48 1009.5
20260905171003 36 350 1.6 3.2 0.00 0.00 0.00 49 1009.8
20260905170003 36 238 1.6 4.8 0.00 0.00 0.00 50 1009.5
20260905165003 36 49 1.6 3.2 0.00 0.00 0.00 48 1009.8
20260905164003 35 49 1.6 4.8 0.00 0.00 0.00 49 1010.2
20260905163217 35 57 1.6 3.2 0.00 0.00 0.00 49 1010.2
20260905162217 35 73 1.6 4.8 0.00 0.00 0.00 53 1010.2
20260905161217 35 330 1.6 6.4 0.00 0.00 0.00 48 1010.5
20260905160217 35 40 1.6 4.8 0.00 0.00 0.00 50 1010.5
20260905155217 35 46 1.6 3.2 0.00 0.00 0.00 52 1010.5
20260905154217 35 44 1.6 3.2 0.00 0.00 0.00 56 1010.5
20260905153003 33 56 1.6 3.2 0.00 0.00 0.00 54 1010.9
20260905152003 33 58 1.6 3.2 0.00 0.00 0.00 58 1010.9
20260905151003 32 14 1.6 3.2 0.00 0.00 0.00 59 1011.2
20260905150003 32 56 1.6 3.2 0.00 0.00 0.00 58 1010.9
20260905145003 32 63 1.6 3.2 0.00 0.00 0.00 62 1011.2
20260905144003 31 88 1.6 3.2 0.00 0.00 0.00 63 1011.2
20260905143003 29 52 1.6 1.6 0.00 0.00 0.00 72 1011.2
20260905142003 28 253 0.0 3.2 0.00 0.00 0.00 72 1011.2
20260905141003 28 222 0.0 3.2 0.00 0.00 0.00 74 1011.2
20260905140003 28 41 1.6 6.4 0.00 0.00 0.00 73 1010.9
20260905135003 27 50 0.0 3.2 0.00 0.00 0.00 77 1010.5
20260905134003 27 313 0.0 3.2 0.00 0.00 0.00 80 1010.9
20260905133003 26 42 0.0 3.2 0.00 0.00 0.00 82 1010.9
20260905132003 26 1 0.0 3.2 0.00 0.00 0.00 82 1011.2
20260905131003 25 333 0.0 1.6 0.00 0.00 0.00 85 1011.2
20260905130004 25 335 0.0 1.6 0.00 0.00 0.00 86 1010.9
20260905125003 24 332 0.0 1.6 0.00 0.00 0.00 90 1011.2
20260905124003 23 325 0.0 3.2 0.00 0.00 0.00 90 1011.2
20260905123003 23 0 0.0 0.0 0.00 0.00 0.00 92 1011.2
20260905122003 23 0 0.0 0.0 0.00 0.00 0.00 92 1011.2